Погода в Дрокии

Молдова     48°02′03″N   27°48′57″E
темп.,
°C
ветер,
м/с
пор.,
м/с
влажн.,
%
обл.,
%
осадки,
мм/ч
давл.,
гПа
погр.,
м
5 августа, чт
чт500:00+19ююв410832 1.8 1014249
03:00+17в1189100 3.0 101414
06:00+17юв3493100 0.1 101383
09:00+21ююв458182 0.1 1012382
12:00+27ю5657100 0.0 10111000
15:00+30ю784712 0.0 10091790
18:00+30юв795157 0.0 10061460
21:00+26юв816564 0.0 1003558
6 августа, пт
пт600:00+20ю122282100 2.3 1005600
03:00+19ююв31089100 2.6 1004270
06:00+20ююв2896100 0.0 1002306
09:00+23ююз4582100 0.0 1003615
12:00+26ю216094 0.1 10041172
15:00+28сз225190 1.1 10031569
18:00+28св234975 0.0 10021642
21:00+18ссз5108496 17.0 1005222
7 августа, сб
сб700:00+18сз4109178 0.1 1008363
03:00+16сз51091100 0.1 1009370
06:00+14сз5109411 0.0 1010329
09:00+17сз6780100 0.0 1012567
12:00+20ссз6766100 0.0 1013852
15:00+24ссз67440 0.0 10121322
18:00+24с45450 0.0 10131336
21:00+19ссв22610 0.0 101412
8 августа, вс
вс800:00+17с11635 0.0 101511
03:00+16св11650 0.0 101511
06:00+15в11672 0.0 101611
09:00+20вюв22565 0.0 1016280
12:00+25юв22453 0.0 1016875
15:00+27ююв224082 0.0 10161266
18:00+28юв22402 0.0 10151176
21:00+22вюв22560 0.0 101612
9 августа, пн
пн900:00+20вюв22585 0.0 101718
03:00+19юв335817 0.0 101628
06:00+18вюв225998 0.0 101622
09:00+23ююв345391 0.0 1016260
12:00+26зсз3347100 0.0 1018865
15:00+28сз124498 0.0 1017887
18:00+28ссз334842 0.0 10171418
21:00+23ссз367431 0.0 1018112